EW9559 Weather Reports


Display with metric or nautical units.
time (UTC)temp
F
wind
direction
speed
MPH
gust
MPH
rain 1hr
in
rain 24hr
in
rain mn
in
humidity
%
barometer
mb
20260507011604 68 276 0.0 4.0 0.00 0.00 0.00 52 1021.7
20260507010030 69 265 0.0 3.0 0.00 0.00 0.00 52 1021.8
20260507004529 69 257 1.0 7.0 0.00 0.00 0.00 51 1021.7
20260507003032 70 265 0.0 7.0 0.00 0.00 0.00 52 1021.6
20260507001530 69 263 1.0 7.0 0.00 0.00 0.00 52 1021.5
20260507000029 67 272 0.0 6.0 0.00 0.00 0.00 56 1021.5
20260506234604 65 261 0.0 8.0 0.00 0.00 0.00 58 1021.4
20260506231529 65 270 1.0 12.0 0.00 0.00 0.00 58 1021.3
20260506224551 66 266 1.0 10.0 0.00 0.00 0.00 57 1021.0
20260506223030 68 277 0.0 10.0 0.00 0.00 0.00 55 1021.0
20260506220154 69 280 1.0 7.0 0.00 0.00 0.00 56 1021.0
20260506214532 69 275 1.0 9.0 0.00 0.00 0.00 57 1021.2
20260506211529 69 266 0.0 8.0 0.00 0.00 0.00 55 1021.5
20260506210032 70 272 0.0 7.0 0.00 0.00 0.00 55 1021.7
20260506204531 70 272 0.0 5.0 0.00 0.00 0.00 55 1021.6
20260506203105 69 270 1.0 7.0 0.00 0.00 0.00 56 1021.6
20260506201546 69 268 0.0 5.0 0.00 0.00 0.00 56 1021.8
20260506194533 68 267 2.0 10.0 0.00 0.00 0.00 57 1021.7
20260506193029 68 253 2.0 9.0 0.00 0.00 0.00 58 1021.8
20260506190031 67 249 1.0 12.0 0.00 0.00 0.00 61 1021.9
20260506184604 67 247 1.0 7.0 0.00 0.00 0.00 63 1021.9
20260506183107 67 258 1.0 6.0 0.00 0.00 0.00 64 1022.0
20260506181529 66 258 1.0 7.0 0.00 0.00 0.00 65 1021.9
20260506180029 66 257 2.0 9.0 0.00 0.00 0.00 65 1022.0
20260506174529 66 261 1.0 9.0 0.00 0.00 0.00 66 1022.1
20260506173028 65 250 1.0 9.0 0.00 0.00 0.00 68 1022.0
20260506171531 64 244 1.0 11.0 0.00 0.00 0.00 68 1021.9
20260506164529 64 275 1.0 7.0 0.00 0.00 0.00 67 1021.9
20260506163107 61 264 0.0 4.0 0.00 0.00 0.00 72 1022.0
20260506161531 62 239 1.0 7.0 0.00 0.00 0.00 72 1022.3
20260506160114 62 252 1.0 7.0 0.00 0.00 0.00 72 1022.2
20260506154531 61 262 1.0 7.0 0.00 0.00 0.00 73 1022.0
20260506153108 61 266 0.0 6.0 0.00 0.00 0.00 73 1022.0
20260506150032 61 262 1.0 7.0 0.00 0.00 0.00 72 1021.9
20260506144529 60 250 1.0 6.0 0.00 0.00 0.00 73 1021.9
20260506143034 59 241 1.0 7.0 0.00 0.00 0.00 74 1021.9
20260506140030 58 237 0.0 6.0 0.00 0.00 0.00 75 1021.8
20260506134534 58 220 1.0 5.0 0.00 0.00 0.00 76 1021.6
20260506133032 57 228 0.0 6.0 0.00 0.00 0.00 76 1021.5
20260506131532 57 227 0.0 5.0 0.00 0.00 0.00 76 1021.4
20260506130028 57 240 0.0 3.0 0.00 0.00 0.00 76 1021.4
20260506124526 57 242 0.0 4.0 0.00 0.00 0.00 77 1021.2
20260506123027 57 244 0.0 7.0 0.00 0.00 0.00 77 1021.1
20260506120028 57 244 0.0 10.0 0.00 0.00 0.00 78 1020.8
20260506114530 57 246 0.0 4.0 0.00 0.00 0.00 78 1020.7
20260506113106 57 238 0.0 6.0 0.00 0.00 0.00 77 1020.6
20260506111531 57 238 1.0 6.0 0.00 0.00 0.00 77 1020.4
20260506110034 57 228 1.0 6.0 0.00 0.00 0.00 76 1020.3
20260506104529 57 229 1.0 6.0 0.00 0.00 0.00 76 1020.2
20260506103031 57 240 0.0 7.0 0.00 0.00 0.00 77 1020.1
20260506094533 57 243 1.0 6.0 0.00 0.00 0.00 79 1019.9
20260506091532 57 258 0.0 5.0 0.00 0.00 0.00 78 1019.7
20260506090031 57 249 2.0 7.0 0.00 0.00 0.00 78 1019.6
20260506084529 57 256 2.0 11.0 0.00 0.00 0.00 78 1019.3
20260506083107 57 248 1.0 10.0 0.00 0.00 0.00 79 1019.2
20260506081528 57 241 1.0 7.0 0.00 0.00 0.00 80 1019.3
20260506071527 57 227 2.0 11.0 0.00 0.00 0.00 79 1019.0
20260506061532 56 229 0.0 5.0 0.00 0.00 0.00 80 1018.8
20260506044543 57 245 0.0 4.0 0.00 0.00 0.00 78 1018.0
20260506043028 57 238 1.0 7.0 0.00 0.00 0.00 78 1017.9
20260506041531 57 214 1.0 6.0 0.00 0.00 0.00 78 1017.8
20260506034542 58 236 0.0 4.0 0.00 0.00 0.00 76 1017.2
20260506031531 59 235 1.0 6.0 0.00 0.00 0.00 74 1017.0
20260506024530 60 236 0.0 4.0 0.00 0.00 0.00 71 1016.6
20260506023103 61 226 0.0 7.0 0.00 0.00 0.00 70 1016.4
20260506021531 62 236 1.0 11.0 0.00 0.00 0.00 68 1016.3
20260506020031 63 247 0.0 6.0 0.00 0.00 0.00 67 1016.2
20260506014531 63 246 1.0 6.0 0.00 0.00 0.00 67 1016.1
20260506013032 63 245 2.0 11.0 0.00 0.00 0.00 66 1015.9